When you browse on this site, cookies collect data to enhance your experience and personalize the content and advertising you see.
Visit our Privacy Policy to learn more. By continuing to use the site, you agree to this use of cookies and data.
  • In Czech Republic
  • List of Countries
  • For 7 days
  • Water Temperature
  • Satellite Maps
  • Weather Map
  • Weather Widgets
  • user-avatar
    Login

    Hourly Weather A'ali

    Today, 23 May, Thursday

    Time Temperature Precipitation Wind Pressure Humidity
    00:00 +33°C° 0 mm 1 mps 755 mmHg 35%
    01:00 +34°C° 0 mm 2 mps 755 mmHg 34%
    02:00 +34°C° 0 mm 3 mps 755 mmHg 33%
    03:00 +34°C° 0 mm 4 mps 755 mmHg 32%
    04:00 +34°C° 0 mm 4 mps 755 mmHg 31%
    05:00 +34°C° 0 mm 4 mps 755 mmHg 30%
    06:00 +35°C° 0 mm 4 mps 755 mmHg 29%
    07:00 +36°C° 0 mm 4 mps 755 mmHg 26%
    08:00 +37°C° 0 mm 4 mps 755 mmHg 23%
    09:00 +40°C° 0 mm 4 mps 755 mmHg 19%
    10:00 +39°C° 0 mm 3 mps 755 mmHg 19%
    11:00 +40°C° 0 mm 3 mps 755 mmHg 18%
    12:00 +41°C° 0 mm 2 mps 755 mmHg 17%
    13:00 +40°C° 0 mm 3 mps 754 mmHg 18%
    14:00 +41°C° 0 mm 5 mps 754 mmHg 19%
    15:00 +41°C° 0 mm 6 mps 754 mmHg 21%
    16:00 +40°C° 0 mm 6 mps 754 mmHg 24%
    17:00 +38°C° 0 mm 6 mps 754 mmHg 26%
    18:00 +36°C° 0 mm 5 mps 753 mmHg 29%
    19:00 +36°C° 0 mm 4 mps 754 mmHg 31%
    20:00 +35°C° 0 mm 3 mps 754 mmHg 33%
    21:00 +34°C° 0 mm 1 mps 754 mmHg 35%
    22:00 +33°C° 0 mm 1 mps 754 mmHg 34%
    23:00 +34°C° 0 mm 2 mps 754 mmHg 33%

    Tomorrow, 24 May, Friday

    Time Temperature Precipitation Wind Pressure Humidity
    00:00 +34°C° 0 mm 2 mps 754 mmHg 31%
    01:00 +34°C° 0 mm 2 mps 754 mmHg 31%
    02:00 +34°C° 0 mm 3 mps 754 mmHg 30%
    03:00 +34°C° 0 mm 3 mps 754 mmHg 30%
    04:00 +34°C° 0 mm 3 mps 754 mmHg 29%
    05:00 +34°C° 0 mm 2 mps 754 mmHg 29%
    06:00 +35°C° 0 mm 2 mps 754 mmHg 28%
    07:00 +36°C° 0 mm 2 mps 754 mmHg 25%
    08:00 +37°C° 0 mm 2 mps 755 mmHg 22%
    09:00 +38°C° 0 mm 2 mps 755 mmHg 20%
    10:00 +39°C° 0 mm 2 mps 755 mmHg 19%
    11:00 +40°C° 0 mm 2 mps 755 mmHg 18%
    12:00 +40°C° 0 mm 2 mps 755 mmHg 17%
    13:00 +40°C° 0 mm 3 mps 754 mmHg 18%
    14:00 +40°C° 0 mm 3 mps 754 mmHg 20%
    15:00 +40°C° 0 mm 4 mps 754 mmHg 22%
    16:00 +38°C° 0 mm 4 mps 754 mmHg 25%
    17:00 +37°C° 0 mm 4 mps 753 mmHg 28%
    18:00 +36°C° 0 mm 4 mps 753 mmHg 31%
    19:00 +36°C° 0 mm 4 mps 754 mmHg 30%
    20:00 +36°C° 0 mm 4 mps 754 mmHg 30%
    21:00 +35°C° 0 mm 4 mps 755 mmHg 29%
    22:00 +35°C° 0 mm 4 mps 755 mmHg 31%
    23:00 +35°C° 0 mm 4 mps 754 mmHg 32%

    Day after tomorrow, 25 May, Saturday

    Time Temperature Precipitation Wind Pressure Humidity
    00:00 +34°C° 0 mm 3 mps 754 mmHg 34%
    01:00 +34°C° 0 mm 3 mps 754 mmHg 35%
    02:00 +32°C° 0 mm 2 mps 754 mmHg 35%
    03:00 +32°C° 0 mm 2 mps 754 mmHg 36%
    04:00 +32°C° 0 mm 2 mps 754 mmHg 35%
    05:00 +32°C° 0 mm 2 mps 754 mmHg 33%
    06:00 +34°C° 0 mm 2 mps 755 mmHg 32%
    07:00 +34°C° 0 mm 2 mps 755 mmHg 30%
    08:00 +35°C° 0 mm 2 mps 755 mmHg 27%
    09:00 +35°C° 0 mm 1 mps 756 mmHg 25%
    10:00 +36°C° 0 mm 1 mps 755 mmHg 23%
    11:00 +37°C° 0 mm 1 mps 755 mmHg 21%
    12:00 +39°C° 0 mm 1 mps 755 mmHg 19%
    13:00 +39°C° 0 mm 1 mps 754 mmHg 18%
    14:00 +39°C° 0 mm 2 mps 754 mmHg 18%
    15:00 +40°C° 0 mm 2 mps 753 mmHg 17%
    16:00 +39°C° 0 mm 3 mps 753 mmHg 19%
    17:00 +39°C° 0 mm 3 mps 753 mmHg 21%
    18:00 +38°C° 0 mm 4 mps 753 mmHg 23%
    19:00 +37°C° 0 mm 4 mps 754 mmHg 25%
    20:00 +37°C° 0 mm 4 mps 754 mmHg 27%
    21:00 +36°C° 0 mm 4 mps 754 mmHg 29%
    22:00 +36°C° 0 mm 4 mps 754 mmHg 29%
    23:00 +36°C° 0 mm 3 mps 754 mmHg 28%

    26 May, Sunday

    Time Temperature Precipitation Wind Pressure Humidity
    00:00 +35°C° 0 mm 3 mps 753 mmHg 28%
    01:00 +35°C° 0 mm 3 mps 753 mmHg 31%
    02:00 +34°C° 0 mm 3 mps 753 mmHg 34%
    03:00 +33°C° 0 mm 4 mps 753 mmHg 37%
    04:00 +34°C° 0 mm 3 mps 753 mmHg 35%
    05:00 +34°C° 0 mm 2 mps 753 mmHg 33%
    06:00 +33°C° 0 mm 1 mps 753 mmHg 32%
    07:00 +34°C° 0 mm 1 mps 754 mmHg 30%
    08:00 +35°C° 0 mm 1 mps 754 mmHg 28%
    09:00 +36°C° 0 mm 1 mps 754 mmHg 26%
    10:00 +37°C° 0 mm 1 mps 754 mmHg 25%
    11:00 +37°C° 0 mm 1 mps 754 mmHg 23%
    12:00 +39°C° 0 mm 1 mps 754 mmHg 22%
    13:00 +39°C° 0 mm 2 mps 753 mmHg 22%
    14:00 +40°C° 0 mm 3 mps 753 mmHg 21%
    15:00 +41°C° 0 mm 4 mps 753 mmHg 20%
    16:00 +40°C° 0 mm 4 mps 753 mmHg 22%
    17:00 +38°C° 0 mm 4 mps 753 mmHg 25%
    18:00 +37°C° 0 mm 4 mps 753 mmHg 27%
    19:00 +37°C° 0 mm 3 mps 753 mmHg 28%
    20:00 +36°C° 0 mm 3 mps 753 mmHg 29%
    21:00 +36°C° 0 mm 2 mps 753 mmHg 30%
    22:00 +36°C° 0 mm 2 mps 753 mmHg 30%
    23:00 +35°C° 0 mm 3 mps 753 mmHg 29%

    27 May, Monday

    Time Temperature Precipitation Wind Pressure Humidity
    00:00 +35°C° 0 mm 3 mps 752 mmHg 29%
    01:00 +35°C° 0 mm 3 mps 752 mmHg 31%
    02:00 +34°C° 0 mm 3 mps 752 mmHg 32%
    03:00 +34°C° 0 mm 3 mps 752 mmHg 33%
    04:00 +34°C° 0 mm 2 mps 752 mmHg 32%
    05:00 +34°C° 0 mm 2 mps 752 mmHg 31%
    06:00 +34°C° 0 mm 1 mps 753 mmHg 30%
    07:00 +34°C° 0 mm 1 mps 753 mmHg 28%
    08:00 +33°C° 0 mm 0 mps 753 mmHg 26%
    09:00 +34°C° 0 mm 0 mps 754 mmHg 25%
    10:00 +37°C° 0 mm 1 mps 753 mmHg 23%
    11:00 +39°C° 0 mm 2 mps 753 mmHg 21%
    12:00 +40°C° 0 mm 2 mps 753 mmHg 19%
    13:00 +40°C° 0 mm 3 mps 753 mmHg 20%
    14:00 +41°C° 0 mm 4 mps 752 mmHg 20%
    15:00 +41°C° 0 mm 4 mps 752 mmHg 20%
    16:00 +40°C° 0 mm 4 mps 752 mmHg 23%
    17:00 +38°C° 0 mm 4 mps 752 mmHg 26%
    18:00 +37°C° 0 mm 4 mps 753 mmHg 30%
    19:00 +37°C° 0 mm 3 mps 753 mmHg 30%
    20:00 +36°C° 0 mm 3 mps 753 mmHg 30%
    21:00 +36°C° 0 mm 2 mps 753 mmHg 30%
    22:00 +35°C° 0 mm 1 mps 753 mmHg 30%
    23:00 +34°C° 0 mm 1 mps 752 mmHg 30%

    28 May, Tuesday

    Time Temperature Precipitation Wind Pressure Humidity
    00:00 +32°C° 0 mm 0 mps 752 mmHg 30%
    01:00 +32°C° 0 mm 0 mps 752 mmHg 30%
    02:00 +31°C° 0 mm 0 mps 752 mmHg 30%
    03:00 +31°C° 0 mm 0 mps 751 mmHg 30%
    04:00 +31°C° 0 mm 0 mps 752 mmHg 28%
    05:00 +32°C° 0 mm 0 mps 752 mmHg 27%
    06:00 +32°C° 0 mm 0 mps 753 mmHg 26%
    07:00 +35°C° 0 mm 1 mps 753 mmHg 24%
    08:00 +36°C° 0 mm 1 mps 753 mmHg 23%
    09:00 +37°C° 0 mm 1 mps 754 mmHg 21%
    10:00 +39°C° 0 mm 1 mps 753 mmHg 20%
    11:00 +40°C° 0 mm 1 mps 753 mmHg 19%
    12:00 +41°C° 0 mm 1 mps 753 mmHg 18%
    13:00 +41°C° 0 mm 1 mps 752 mmHg 17%
    14:00 +42°C° 0 mm 1 mps 752 mmHg 16%
    15:00 +42°C° 0 mm 1 mps 752 mmHg 16%
    16:00 +42°C° 0 mm 2 mps 752 mmHg 16%
    17:00 +41°C° 0 mm 2 mps 752 mmHg 16%
    18:00 +41°C° 0 mm 2 mps 752 mmHg 16%
    19:00 +40°C° 0 mm 2 mps 752 mmHg 16%
    20:00 +40°C° 0 mm 2 mps 752 mmHg 16%
    21:00 +39°C° 0 mm 2 mps 752 mmHg 16%
    22:00 +39°C° 0 mm 2 mps 752 mmHg 16%
    23:00 +39°C° 0 mm 2 mps 752 mmHg 15%
    Show more